| time (UTC) | temp F | wind direction | speed MPH | gust MPH | rain 1hr in | rain 24hr in | rain mn in | humidity % | barometer mb |
| 20260505014104 | 78 | 163 | 17.0 | 23.0 | 0.00 | 0.00 | 0.00 | 66 | 999.0 |
| 20260505013605 | 78 | 156 | 15.0 | 23.0 | 0.00 | 0.00 | 0.00 | 65 | 998.8 |
| 20260505013105 | 78 | 175 | 16.0 | 23.0 | 0.00 | 0.00 | 0.00 | 64 | 998.9 |
| 20260505012605 | 78 | 161 | 14.0 | 23.0 | 0.00 | 0.00 | 0.00 | 64 | 999.1 |
| 20260505010604 | 79 | 172 | 18.0 | 26.0 | 0.00 | 0.00 | 0.00 | 63 | 999.0 |
| 20260505010105 | 79 | 156 | 17.0 | 26.0 | 0.00 | 0.00 | 0.00 | 63 | 999.2 |
| 20260505005605 | 79 | 178 | 15.0 | 26.0 | 0.00 | 0.00 | 0.00 | 63 | 999.3 |
| 20260505004104 | 79 | 158 | 17.0 | 29.0 | 0.00 | 0.00 | 0.00 | 62 | 999.2 |
| 20260505003605 | 80 | 158 | 17.0 | 29.0 | 0.00 | 0.00 | 0.00 | 62 | 999.2 |
| 20260505002604 | 80 | 182 | 20.0 | 30.0 | 0.00 | 0.00 | 0.00 | 61 | 999.2 |
| 20260505002104 | 80 | 165 | 18.0 | 28.0 | 0.00 | 0.00 | 0.00 | 61 | 999.2 |
| 20260505001605 | 81 | 179 | 18.0 | 26.0 | 0.00 | 0.00 | 0.00 | 60 | 999.3 |
| 20260505001105 | 81 | 159 | 18.0 | 28.0 | 0.00 | 0.00 | 0.00 | 61 | 999.3 |
| 20260505000104 | 81 | 177 | 17.0 | 26.0 | 0.00 | 0.00 | 0.00 | 61 | 999.5 |
| 20260504235605 | 81 | 176 | 17.0 | 26.0 | 0.00 | 0.00 | 0.00 | 60 | 999.7 |
| 20260504235105 | 81 | 181 | 17.0 | 28.0 | 0.00 | 0.00 | 0.00 | 60 | 999.7 |
| 20260504234605 | 81 | 176 | 20.0 | 28.0 | 0.00 | 0.00 | 0.00 | 59 | 999.7 |
| 20260504234104 | 82 | 169 | 17.0 | 29.0 | 0.00 | 0.00 | 0.00 | 58 | 999.8 |
| 20260504233605 | 82 | 169 | 18.0 | 29.0 | 0.00 | 0.00 | 0.00 | 58 | 999.8 |
| 20260504233105 | 83 | 166 | 17.0 | 26.0 | 0.00 | 0.00 | 0.00 | 57 | 999.8 |
| 20260504232604 | 82 | 167 | 17.0 | 30.0 | 0.00 | 0.00 | 0.00 | 57 | 999.8 |
| 20260504232104 | 82 | 176 | 16.0 | 30.0 | 0.00 | 0.00 | 0.00 | 57 | 999.8 |
| 20260504231604 | 82 | 158 | 17.0 | 30.0 | 0.00 | 0.00 | 0.00 | 58 | 999.8 |
| 20260504231104 | 82 | 167 | 13.0 | 21.0 | 0.00 | 0.00 | 0.00 | 57 | 999.8 |
| 20260504230604 | 83 | 157 | 13.0 | 23.0 | 0.00 | 0.00 | 0.00 | 56 | 1000.0 |
| 20260504230104 | 83 | 176 | 16.0 | 26.0 | 0.00 | 0.00 | 0.00 | 56 | 1000.0 |
| 20260504225605 | 83 | 160 | 14.0 | 26.0 | 0.00 | 0.00 | 0.00 | 57 | 1000.1 |
| 20260504225104 | 83 | 165 | 14.0 | 26.0 | 0.00 | 0.00 | 0.00 | 56 | 1000.2 |
| 20260504224605 | 83 | 169 | 17.0 | 26.0 | 0.00 | 0.00 | 0.00 | 55 | 1000.2 |
| 20260504224104 | 82 | 186 | 16.0 | 24.0 | 0.00 | 0.00 | 0.00 | 56 | 1000.2 |
| 20260504223604 | 82 | 172 | 16.0 | 26.0 | 0.00 | 0.00 | 0.00 | 55 | 1000.3 |
| 20260504223104 | 82 | 161 | 17.0 | 26.0 | 0.00 | 0.00 | 0.00 | 55 | 1000.4 |
| 20260504222604 | 82 | 171 | 17.0 | 25.0 | 0.00 | 0.00 | 0.00 | 54 | 1000.5 |
| 20260504222104 | 82 | 176 | 17.0 | 25.0 | 0.00 | 0.00 | 0.00 | 54 | 1000.4 |
| 20260504221604 | 82 | 179 | 14.0 | 26.0 | 0.00 | 0.00 | 0.00 | 55 | 1000.5 |
| 20260504221104 | 82 | 169 | 15.0 | 26.0 | 0.00 | 0.00 | 0.00 | 55 | 1000.6 |
| 20260504220604 | 82 | 173 | 18.0 | 26.0 | 0.00 | 0.00 | 0.00 | 53 | 1000.6 |
| 20260504220105 | 82 | 179 | 17.0 | 26.0 | 0.00 | 0.00 | 0.00 | 53 | 1000.7 |
| 20260504215104 | 82 | 166 | 16.0 | 26.0 | 0.00 | 0.00 | 0.00 | 54 | 1000.8 |
| 20260504214604 | 82 | 187 | 12.0 | 25.0 | 0.00 | 0.00 | 0.00 | 55 | 1001.0 |
| 20260504213604 | 82 | 187 | 18.0 | 26.0 | 0.00 | 0.00 | 0.00 | 54 | 1001.0 |
| 20260504213105 | 82 | 167 | 16.0 | 26.0 | 0.00 | 0.00 | 0.00 | 53 | 1001.1 |
| 20260504212104 | 82 | 177 | 16.0 | 26.0 | 0.00 | 0.00 | 0.00 | 54 | 1001.3 |
| 20260504211104 | 82 | 178 | 17.0 | 28.0 | 0.00 | 0.00 | 0.00 | 52 | 1001.3 |
| 20260504210605 | 82 | 189 | 16.0 | 35.0 | 0.00 | 0.00 | 0.00 | 53 | 1001.5 |
| 20260504205604 | 82 | 181 | 20.0 | 35.0 | 0.00 | 0.00 | 0.00 | 52 | 1001.6 |
| 20260504204604 | 82 | 180 | 20.0 | 29.0 | 0.00 | 0.00 | 0.00 | 52 | 1001.9 |
| 20260504204104 | 82 | 190 | 21.0 | 28.0 | 0.00 | 0.00 | 0.00 | 51 | 1002.1 |
| 20260504203604 | 83 | 190 | 16.0 | 26.0 | 0.00 | 0.00 | 0.00 | 50 | 1002.2 |
| 20260504201604 | 83 | 200 | 17.0 | 29.0 | 0.00 | 0.00 | 0.00 | 49 | 1002.2 |
| 20260504201105 | 82 | 197 | 17.0 | 29.0 | 0.00 | 0.00 | 0.00 | 50 | 1002.3 |
| 20260504200104 | 82 | 196 | 20.0 | 29.0 | 0.00 | 0.00 | 0.00 | 49 | 1002.4 |
| 20260504195604 | 83 | 203 | 16.0 | 29.0 | 0.00 | 0.00 | 0.00 | 49 | 1002.6 |
| 20260504195104 | 82 | 182 | 17.0 | 26.0 | 0.00 | 0.00 | 0.00 | 51 | 1002.7 |
| 20260504194605 | 82 | 179 | 18.0 | 28.0 | 0.00 | 0.00 | 0.00 | 50 | 1002.8 |
| 20260504194104 | 82 | 184 | 20.0 | 28.0 | 0.00 | 0.00 | 0.00 | 49 | 1002.9 |
| 20260504193604 | 83 | 196 | 17.0 | 28.0 | 0.00 | 0.00 | 0.00 | 48 | 1003.0 |
| 20260504192604 | 83 | 180 | 18.0 | 28.0 | 0.00 | 0.00 | 0.00 | 48 | 1003.2 |
| 20260504192104 | 83 | 188 | 17.0 | 24.0 | 0.00 | 0.00 | 0.00 | 48 | 1003.2 |
| 20260504191605 | 82 | 188 | 17.0 | 28.0 | 0.00 | 0.00 | 0.00 | 49 | 1003.3 |
| 20260504191104 | 82 | 184 | 20.0 | 28.0 | 0.00 | 0.00 | 0.00 | 48 | 1003.4 |
| 20260504190604 | 82 | 203 | 19.0 | 28.0 | 0.00 | 0.00 | 0.00 | 47 | 1003.4 |
| 20260504184604 | 82 | 186 | 16.0 | 29.0 | 0.00 | 0.00 | 0.00 | 48 | 1003.5 |
| 20260504184104 | 81 | 182 | 16.0 | 23.0 | 0.00 | 0.00 | 0.00 | 50 | 1003.5 |
| 20260504183604 | 81 | 193 | 17.0 | 23.0 | 0.00 | 0.00 | 0.00 | 49 | 1003.7 |
| 20260504183104 | 81 | 180 | 15.0 | 23.0 | 0.00 | 0.00 | 0.00 | 51 | 1003.8 |
| 20260504182604 | 80 | 201 | 16.0 | 23.0 | 0.00 | 0.00 | 0.00 | 51 | 1004.0 |
| 20260504182104 | 80 | 182 | 16.0 | 23.0 | 0.00 | 0.00 | 0.00 | 49 | 1004.2 |
| 20260504181604 | 80 | 171 | 16.0 | 24.0 | 0.00 | 0.00 | 0.00 | 51 | 1004.2 |
| 20260504181105 | 80 | 181 | 15.0 | 26.0 | 0.00 | 0.00 | 0.00 | 51 | 1004.1 |
| 20260504180604 | 79 | 194 | 20.0 | 26.0 | 0.00 | 0.00 | 0.00 | 50 | 1004.3 |
| 20260504180104 | 79 | 173 | 15.0 | 28.0 | 0.00 | 0.00 | 0.00 | 53 | 1004.3 |
| 20260504175604 | 79 | 188 | 17.0 | 28.0 | 0.00 | 0.00 | 0.00 | 51 | 1004.4 |
| 20260504175104 | 80 | 188 | 17.0 | 23.0 | 0.00 | 0.00 | 0.00 | 51 | 1004.5 |
| 20260504174604 | 79 | 208 | 16.0 | 25.0 | 0.00 | 0.00 | 0.00 | 50 | 1004.6 |
| 20260504174104 | 79 | 201 | 15.0 | 25.0 | 0.00 | 0.00 | 0.00 | 51 | 1004.7 |
| 20260504173604 | 79 | 175 | 18.0 | 24.0 | 0.00 | 0.00 | 0.00 | 50 | 1004.7 |
| 20260504172104 | 78 | 198 | 14.0 | 26.0 | 0.00 | 0.00 | 0.00 | 51 | 1004.9 |
| 20260504171604 | 78 | 205 | 17.0 | 26.0 | 0.00 | 0.00 | 0.00 | 50 | 1004.9 |
| 20260504171104 | 78 | 210 | 17.0 | 26.0 | 0.00 | 0.00 | 0.00 | 51 | 1004.9 |
| 20260504170604 | 78 | 198 | 17.0 | 26.0 | 0.00 | 0.00 | 0.00 | 51 | 1005.1 |
| 20260504160105 | 74 | 200 | 20.0 | 25.0 | 0.00 | 0.00 | 0.00 | 54 | 1005.4 |
| 20260504151104 | 73 | 171 | 17.0 | 26.0 | 0.00 | 0.00 | 0.00 | 54 | 1005.5 |
| 20260504150604 | 72 | 187 | 14.0 | 26.0 | 0.00 | 0.00 | 0.00 | 55 | 1005.6 |
| 20260504150104 | 72 | 188 | 19.0 | 29.0 | 0.00 | 0.00 | 0.00 | 55 | 1005.6 |
| 20260504141104 | 69 | 186 | 19.0 | 26.0 | 0.00 | 0.00 | 0.00 | 58 | 1006.0 |
| 20260504140604 | 69 | 189 | 17.0 | 26.0 | 0.00 | 0.00 | 0.00 | 59 | 1005.9 |
| 20260504140104 | 68 | 189 | 18.0 | 26.0 | 0.00 | 0.00 | 0.00 | 59 | 1005.9 |
| 20260504130604 | 66 | 174 | 17.0 | 26.0 | 0.00 | 0.00 | 0.00 | 62 | 1006.3 |
| 20260504120104 | 63 | 187 | 16.0 | 23.0 | 0.00 | 0.00 | 0.00 | 64 | 1006.4 |
| 20260504110604 | 63 | 195 | 16.0 | 23.0 | 0.00 | 0.00 | 0.00 | 61 | 1006.8 |
| 20260504110104 | 64 | 197 | 16.0 | 23.0 | 0.00 | 0.00 | 0.00 | 61 | 1007.0 |
| 20260504100604 | 64 | 191 | 17.0 | 24.0 | 0.00 | 0.00 | 0.00 | 58 | 1007.2 |
| 20260504100104 | 65 | 191 | 14.0 | 24.0 | 0.00 | 0.00 | 0.00 | 57 | 1007.2 |
| 20260504090104 | 66 | 196 | 16.0 | 23.0 | 0.00 | 0.00 | 0.00 | 55 | 1007.6 |
| 20260504081604 | 66 | 194 | 13.0 | 21.0 | 0.00 | 0.00 | 0.00 | 54 | 1008.0 |
| 20260504081103 | 66 | 188 | 12.0 | 20.0 | 0.00 | 0.00 | 0.00 | 54 | 1008.1 |
| 20260504080603 | 66 | 194 | 12.0 | 20.0 | 0.00 | 0.00 | 0.00 | 53 | 1008.1 |
| 20260504070104 | 67 | 183 | 12.0 | 18.0 | 0.00 | 0.00 | 0.00 | 51 | 1008.9 |
| 20260504060104 | 68 | 188 | 13.0 | 21.0 | 0.00 | 0.00 | 0.00 | 49 | 1009.6 |
| 20260504050604 | 69 | 190 | 13.0 | 23.0 | 0.00 | 0.00 | 0.00 | 47 | 1010.1 |
| 20260504045604 | 69 | 190 | 13.0 | 23.0 | 0.00 | 0.00 | 0.00 | 47 | 1010.1 |
| 20260504045103 | 69 | 184 | 14.0 | 24.0 | 0.00 | 0.00 | 0.00 | 47 | 1010.1 |
| 20260504044604 | 70 | 186 | 13.0 | 24.0 | 0.00 | 0.00 | 0.00 | 47 | 1010.3 |
| 20260504044104 | 70 | 188 | 14.0 | 21.0 | 0.00 | 0.00 | 0.00 | 47 | 1010.3 |
| 20260504043103 | 70 | 180 | 14.0 | 24.0 | 0.00 | 0.00 | 0.00 | 47 | 1010.3 |
| 20260504042604 | 70 | 178 | 12.0 | 18.0 | 0.00 | 0.00 | 0.00 | 47 | 1010.3 |
| 20260504042104 | 70 | 181 | 12.0 | 18.0 | 0.00 | 0.00 | 0.00 | 46 | 1010.3 |
| 20260504041104 | 70 | 178 | 13.0 | 21.0 | 0.00 | 0.00 | 0.00 | 46 | 1010.5 |
| 20260504040604 | 70 | 175 | 13.0 | 21.0 | 0.00 | 0.00 | 0.00 | 46 | 1010.5 |
| 20260504040105 | 70 | 188 | 12.0 | 20.0 | 0.00 | 0.00 | 0.00 | 46 | 1010.5 |
| 20260504035604 | 71 | 180 | 12.0 | 21.0 | 0.00 | 0.00 | 0.00 | 45 | 1010.7 |
| 20260504035104 | 71 | 188 | 13.0 | 21.0 | 0.00 | 0.00 | 0.00 | 45 | 1010.7 |
| 20260504034604 | 71 | 176 | 13.0 | 20.0 | 0.00 | 0.00 | 0.00 | 45 | 1010.7 |
| 20260504034104 | 71 | 180 | 12.0 | 18.0 | 0.00 | 0.00 | 0.00 | 45 | 1010.6 |
| 20260504033603 | 71 | 177 | 12.0 | 21.0 | 0.00 | 0.00 | 0.00 | 45 | 1010.7 |
| 20260504032603 | 71 | 175 | 12.0 | 21.0 | 0.00 | 0.00 | 0.00 | 45 | 1010.7 |
| 20260504032103 | 72 | 181 | 13.0 | 21.0 | 0.00 | 0.00 | 0.00 | 44 | 1010.6 |
| 20260504031603 | 72 | 182 | 11.0 | 20.0 | 0.00 | 0.00 | 0.00 | 44 | 1010.6 |
| 20260504031104 | 72 | 186 | 12.0 | 20.0 | 0.00 | 0.00 | 0.00 | 44 | 1010.6 |
| 20260504030604 | 72 | 172 | 12.0 | 18.0 | 0.00 | 0.00 | 0.00 | 44 | 1010.6 |
| 20260504025604 | 72 | 185 | 10.0 | 18.0 | 0.00 | 0.00 | 0.00 | 44 | 1010.6 |
| 20260504025104 | 72 | 190 | 11.0 | 18.0 | 0.00 | 0.00 | 0.00 | 44 | 1010.5 |
| 20260504024604 | 72 | 181 | 13.0 | 20.0 | 0.00 | 0.00 | 0.00 | 44 | 1010.5 |
| 20260504024104 | 73 | 186 | 13.0 | 20.0 | 0.00 | 0.00 | 0.00 | 44 | 1010.6 |
| 20260504023604 | 73 | 175 | 10.0 | 20.0 | 0.00 | 0.00 | 0.00 | 44 | 1010.5 |
| 20260504023104 | 73 | 174 | 11.0 | 20.0 | 0.00 | 0.00 | 0.00 | 43 | 1010.5 |
| 20260504022604 | 73 | 167 | 11.0 | 18.0 | 0.00 | 0.00 | 0.00 | 43 | 1010.5 |
| 20260504022104 | 73 | 179 | 11.0 | 18.0 | 0.00 | 0.00 | 0.00 | 43 | 1010.4 |
| 20260504021604 | 73 | 186 | 12.0 | 21.0 | 0.00 | 0.00 | 0.00 | 42 | 1010.4 |
| 20260504021103 | 74 | 180 | 12.0 | 21.0 | 0.00 | 0.00 | 0.00 | 42 | 1010.3 |
| 20260504020604 | 74 | 187 | 14.0 | 20.0 | 0.00 | 0.00 | 0.00 | 42 | 1010.3 |
| 20260504020104 | 74 | 170 | 10.0 | 22.0 | 0.00 | 0.00 | 0.00 | 42 | 1010.3 |
| 20260504015604 | 74 | 180 | 12.0 | 22.0 | 0.00 | 0.00 | 0.00 | 42 | 1010.3 |
| 20260504015103 | 74 | 172 | 11.0 | 18.0 | 0.00 | 0.00 | 0.00 | 41 | 1010.2 |
| 20260504014604 | 74 | 169 | 11.0 | 18.0 | 0.00 | 0.00 | 0.00 | 41 | 1010.1 |